Lexington Weather

Lexington, Massachusetts, USA

36°F
1/28/2020 4:29am 
  • Lexington Conditions: Overcast
  • Temperature: 36.0°F / 2.2°CColder 0.3°F than last hour.
  • Dew Point: 29.5°F 
  • Relative Humidity: 77%Increased 1.0% since last hour.
  • Wind: Wind from NW NW Calm, 10-min avg: 1 mph, gust: 3 mph
  • Barometer: 29.62 in Steady
  • Visibility: 10 miles
  • Rain Today: 0.00 in
  •   

Regional Weather Roundup
for Boston / Norton, MA

        
000
ASUS41 KBOX 261010
RWRBOX

REGIONAL WEATHER ROUNDUP
NATIONAL WEATHER SERVICE BOSTON/NORTON MA
500 AM EST SUN JAN 26 2020

NOTE:  "FAIR" INDICATES FEW OR NO CLOUDS BELOW 12,000 FEET WITH NO 
SIGNIFICANT WEATHER AND/OR OBSTRUCTIONS TO VISIBILITY.

MAZALL-261100-
EASTERN MASSACHUSETTS
  
CITY           SKY/WX    TMP DP  RH WIND       PRES   REMARKS
BOSTON         CLOUDY    47  40  76 W7        29.67S                  
BEVERLY        CLOUDY    41  39  93 SW10      29.65F                  
LAWRENCE       FOG       39  39 100 SW6       29.68R VSB 1/2          
BEDFORD        CLOUDY    41  39  93 SW7       29.66S                  
BLUE HILL        N/A     41  40  96 W12       29.65S                  
NORWOOD        CLOUDY    47  40  76 W6        29.68S                  
MARSHFIELD     CLOUDY    46  46 100 VRB6      29.66F                  
PLYMOUTH       CLOUDY    44  43  96 SW8       29.67F                  
TAUNTON        CLOUDY    45  43  93 W6        29.68S                  
NEW BEDFORD    CLOUDY    44  32  62 SW5       29.68S HAZE             
$$

MAZALL-261100-
CAPE COD AND THE ISLANDS
  
CITY           SKY/WX    TMP DP  RH WIND       PRES   REMARKS
FALMOUTH       CLOUDY    41  41 100 W12       29.68F                  
HYANNIS        CLOUDY    43  41  93 S7        29.67F FOG              
CHATHAM        CLOUDY    42  42 100 VRB7      29.70S FOG              
PROVINCETOWN   CLOUDY    43  43 100 S9        29.68S                  
NANTUCKET      CLOUDY    43  42  97 SW12      29.71S FOG              
MARTHAS VNYRD  CLOUDY    44  42  93 SW8       29.70S                  
$$
 
MAZALL-261100-
CENTRAL AND WESTERN MASSACHUSETTS
  
CITY           SKY/WX    TMP DP  RH WIND       PRES   REMARKS
WORCESTER      CLOUDY    37  35  92 W12       29.67R WCI  29          
FITCHBURG      CLOUDY    37  35  92 CALM      29.68R                  
ORANGE         FAIR      34  31  88 CALM      29.70R                  
SPRINGFIELD    CLOUDY    37  37  99 W6        29.72R                  
WESTFIELD      MOCLDY    37  32  82 NW6       29.73R                  
NORTH ADAMS    CLOUDY    35  31  85 W12       29.73S WCI  27          
PITTSFIELD     CLOUDY    35  30  82 NW7       29.70S WCI  29          
$$
 
RIZALL-261100-
RHODE ISLAND
  
CITY           SKY/WX    TMP DP  RH WIND       PRES   REMARKS
PROVIDENCE     CLOUDY    44  41  89 W6        29.71R                  
NEWPORT        CLOUDY    44  41  89 W5        29.70R                  
BLOCK ISLAND   CLOUDY    40  39  97 W16       29.74R WCI  31          
SMITHFIELD     CLOUDY    42  40  92 W7        29.69R                  
WESTERLY       CLOUDY    44  39  82 SW7       29.74R                  
$$
 
CTZALL-261100-
CONNECTICUT
  
CITY           SKY/WX    TMP DP  RH WIND       PRES   REMARKS
BRADLEY INTL   MOCLDY    38  33  82 NW8       29.73R                  
HARTFORD       CLOUDY    40  34  79 W8        29.75R                  
BRIDGEPORT     FAIR      38  35  89 SW6       29.77S                  
DANBURY        FAIR      32  31  96 W3        29.77R                  
GROTON         FAIR      38  38 100 W7        29.74R                  
NEW HAVEN      CLOUDY    41  37  86 SW6       29.76R                  
CHESTER        NOT AVBL                                               
MERIDEN        MOCLDY    32  31  96 CALM      29.76R FOG              
WILLIMANTIC    CLOUDY    40  37  89 W6        29.74R                  
OXFORD         CLOUDY    37  36  93 CALM      29.74R                  
$$

MEZ002-015-021-024-NHZ003-005-008-011-012-014-VTZ005-008-261100-
NORTHERN NEW ENGLAND
  
CITY           SKY/WX    TMP DP  RH WIND       PRES   REMARKS
PORTLAND ME    CLOUDY    38  36  92 W8        29.62F FOG              
BANGOR ME      LGT RAIN  36  35  96 NE8       29.72F WCI  30          
CONCORD NH     CLOUDY    36  35  96 NW6       29.66S WCI  31          
MANCHESTER NH  CLOUDY    38  37  97 NW3       29.65S FOG              
NASHUA NH      CLOUDY    36  36 100 CALM      29.68S FOG              
PORTSMOUTH NH  CLOUDY    39  39  99 NW7       29.63  FOG              
JAFFREY NH     FAIR      36  34  92 VRB5      29.65S                  
KEENE NH       FOG       34  34 100 CALM      29.69R VSB 1/4          
BURLINGTON VT  CLOUDY    34  32  92 S3        29.69F FOG              
MT. WASHINGTON CLOUDY    25  21  86 SW22        N/A  WCI  10          
$$

NYZ052-076-261100-
EASTERN NEW YORK
  
CITY           SKY/WX    TMP DP  RH WIND       PRES   REMARKS
ALBANY         CLOUDY    36  32  85 CALM      29.76S                  
NEW YORK CITY  FAIR      40  33  76 W12       29.79S                  
$$
 
ANZALL-261100-
MARINE OBSERVATIONS
  
STATION/POSITION TIME  TEMP    WIND        PRES    VSBY  WAVE
                       AIR SEA DIR/SP/G                  HT/PER
                 (UTC) (F)     (DEG/KT/KT) (MB)    (MI)  (FT/S)
BOSTON BUOY      0950   45 43  240/ 16/ 19 1003.7S         7/ 9
BUZZARDS BAY     0900   42     240/ 18/ 19 1005.9F
NANTUCKET SOUND  0940                        N/A           2/ 4
MASS BAY-STELLWA 0904   43 42  270/ 10/ 10 1002.4S  1 7/8 10/ 8
ISLE OF SHOALS   0900   45     250/ 11/ 11 1003.2F
S OF BLOCK IS    0930      44                N/A           7/10
$$

......................KEY.........................
  SKY/WX - SKY CONDITION/PRESENT WEATHER
  TMP    - TEMPERATURE IN FAHRENHEIT
  DWPT   - DEWPOINT IN FAHRENHEIT
  RH     - RELATIVE HUMIDITY IN PERCENT
  WIND   - DIRECTION AND SPEED IN MPH
  PRES   - MEAN SEA LEVEL PRESSURE IN INCHES OF HG
  WCI    - WIND CHILL INDEX
  VSB    - VISIBILITY IN MILES
  HX     - HEAT INDEX
  TC     - TEMPERATURE IN CELSIUS
  VRB    - VARIABLE WIND DIRECTION
  N/A    - NOT AVAILABLE
  
      

Other recent Regional Weather Roundups

Tue Jan 28, 4:10am

Tue Jan 28, 4:00am

Tue Jan 28, 3:10am

Tue Jan 28, 3:01am

Tue Jan 28, 2:10am

Tue Jan 28, 2:00am

Tue Jan 28, 1:10am

Tue Jan 28, 1:00am

Tue Jan 28, 12:10am

Tue Jan 28, 12:01am

Mon Jan 27, 11:10pm

Mon Jan 27, 11:00pm

Mon Jan 27, 10:10pm

Mon Jan 27, 10:00pm

Mon Jan 27, 9:10pm

Mon Jan 27, 9:00pm

Mon Jan 27, 8:10pm

Mon Jan 27, 8:01pm

Mon Jan 27, 7:10pm

Mon Jan 27, 7:00pm

Mon Jan 27, 6:10pm

Mon Jan 27, 6:00pm

Mon Jan 27, 5:10pm

Mon Jan 27, 5:00pm

Mon Jan 27, 4:10pm

Mon Jan 27, 4:00pm

Mon Jan 27, 3:10pm

Mon Jan 27, 3:00pm

Mon Jan 27, 2:10pm

Mon Jan 27, 2:00pm

Mon Jan 27, 1:10pm

Mon Jan 27, 1:00pm

Mon Jan 27, 12:10pm

Mon Jan 27, 12:00pm

Mon Jan 27, 11:10am

Mon Jan 27, 11:01am

Mon Jan 27, 10:10am

Mon Jan 27, 10:00am

Mon Jan 27, 9:10am

Mon Jan 27, 9:00am

Mon Jan 27, 8:10am

Mon Jan 27, 8:00am

Mon Jan 27, 7:10am

Mon Jan 27, 7:00am

Mon Jan 27, 6:10am

Mon Jan 27, 6:00am

Mon Jan 27, 5:10am

Mon Jan 27, 5:00am

Mon Jan 27, 4:10am

Mon Jan 27, 4:01am

Mon Jan 27, 3:10am

Mon Jan 27, 3:00am

Mon Jan 27, 2:10am

Mon Jan 27, 2:00am

Mon Jan 27, 1:10am

Mon Jan 27, 1:00am

Mon Jan 27, 12:10am

Mon Jan 27, 12:00am

Sun Jan 26, 11:10pm

Sun Jan 26, 11:00pm

Sun Jan 26, 10:10pm

Sun Jan 26, 10:00pm

Sun Jan 26, 9:10pm

Sun Jan 26, 9:01pm

Sun Jan 26, 8:10pm

Sun Jan 26, 8:00pm

Sun Jan 26, 7:10pm

Sun Jan 26, 7:00pm

Sun Jan 26, 6:10pm

Sun Jan 26, 6:01pm

Sun Jan 26, 5:10pm

Sun Jan 26, 5:01pm

Sun Jan 26, 4:10pm

Sun Jan 26, 4:00pm

Sun Jan 26, 3:10pm

Sun Jan 26, 3:01pm

Sun Jan 26, 2:10pm

Sun Jan 26, 2:01pm

Sun Jan 26, 1:10pm

Sun Jan 26, 1:00pm

Sun Jan 26, 12:10pm

Sun Jan 26, 12:00pm

Sun Jan 26, 11:10am

Sun Jan 26, 11:01am

Sun Jan 26, 10:10am

Sun Jan 26, 10:01am

Sun Jan 26, 9:10am

Sun Jan 26, 9:00am

Sun Jan 26, 8:10am

Sun Jan 26, 8:00am

Sun Jan 26, 7:10am

Sun Jan 26, 7:00am

Sun Jan 26, 6:10am

Sun Jan 26, 6:00am

Sun Jan 26, 5:00am

Sun Jan 26, 4:10am

Sun Jan 26, 4:01am

Sun Jan 26, 3:10am

Sun Jan 26, 3:01am

Sun Jan 26, 2:10am

Sun Jan 26, 2:00am

Sun Jan 26, 1:10am

Sun Jan 26, 1:00am

Sun Jan 26, 12:10am

Sun Jan 26, 12:00am

Sat Jan 25, 11:10pm

Sat Jan 25, 11:00pm

Sat Jan 25, 10:10pm

Sat Jan 25, 10:01pm

Sat Jan 25, 9:10pm

Sat Jan 25, 9:01pm

Sat Jan 25, 8:10pm

Sat Jan 25, 8:01pm

Sat Jan 25, 7:10pm

Sat Jan 25, 7:01pm

Sat Jan 25, 6:10pm

Sat Jan 25, 6:01pm

Sat Jan 25, 5:10pm

Sat Jan 25, 5:01pm

Sat Jan 25, 4:10pm

Sat Jan 25, 4:00pm

Sat Jan 25, 3:10pm

Sat Jan 25, 3:01pm

Sat Jan 25, 2:10pm

Sat Jan 25, 2:00pm

Sat Jan 25, 1:10pm

Sat Jan 25, 1:00pm

Sat Jan 25, 12:10pm

Sat Jan 25, 12:00pm

Sat Jan 25, 11:10am

Sat Jan 25, 11:00am

Sat Jan 25, 10:10am

Sat Jan 25, 10:00am

Sat Jan 25, 9:10am

Sat Jan 25, 9:00am

Sat Jan 25, 8:10am

Sat Jan 25, 8:01am

Sat Jan 25, 7:10am

Sat Jan 25, 7:00am

Sat Jan 25, 6:10am

Sat Jan 25, 6:00am

Sat Jan 25, 5:10am

Sat Jan 25, 5:00am

Meta data:

ID: bbffffab-4ac8-4222-87e4-a036a76031c7
Link: https://api.weather.gov/products/bbffffab-4ac8-4222-87e4-a036a76031c7